www.pogodaiklimat.ru

Погода и климат >> Архив погоды >> Мексика >> Мансанильо


ПОГОДА в Мансанильо

  • Прогноз погоды в Мансанильо
  • Монитор погоды в Мансанильо

АРХИВ ПОГОДЫ в Мансанильо

Время (UTC), дата Ветер
(напр.,м/с)
 
Видим.   Явления Облачность Т
(С)
Тd
(С)
f
(%)
Тe
(С)
Тes
(С)
Комфортность P
(гПа)
Po
(гПа)
Тmin
(С)
Tmax
(С)
R
(мм)
R24
(мм)
S
(см)
09 16.02 штиль 0 6000 м мгла {туман} ясно +23.0 +20.4 85 +30 +30 очень
душно
1013.8 1013.4
12 16.02 штиль 0 6000 м мгла {туман} ясно +21.6 +17.7 78 +26 +26 душно 1012.0 1011.6 +21.6 +29.9
15 16.02 штиль 0 6000 м мгла {туман} ясно +23.7 +20.0 80 +29 +34 душно 1010.9 1010.5
18 16.02 штиль 0 6000 м мгла {туман} ясно +27.3 +22.9 77 +36 +57 опасность
солнечного
удара
1011.7 1011.3 +21.2 +28.1
21 16.02 З 3 7000 м мгла {туман} ясно +28.5 +22.6 70 +37 +47 очень
душно
1009.9 1009.5
00 17.02 Ю 1 7000 м мгла {туман} 3/3 600 м
[Sc]
+26.9 +22.4 76 +35 +36 очень
душно
1009.8 1009.4 +21.2 +29.5
03 17.02 ЮВ 1 6000 м мгла {туман} ясно +24.2 +21.5 85 +31 +31 очень
душно
1010.6 1010.2
06 17.02 штиль 0 6000 м мгла {туман} ясно +23.3 +21.3 89 +31 +31 очень
душно
1012.0 1011.6 +21.2 +29.5
09 17.02 штиль 0 6000 м мгла {туман} ясно +22.8 +19.9 84 +29 +29 очень
душно
1012.8 1012.4
12 17.02 штиль 0 6000 м мгла {туман} ясно +22.2 +19.3 84 +28 +28 душно 1012.3 1011.9 +22.2 +29.5
15 17.02 штиль 0 6000 м мгла {туман} ясно +23.6 +19.3 77 +29 +34 душно 1014.4 1014.0
18 17.02 штиль 0 6000 м мгла {туман} ясно +30.2 +22.7 64 +40 +61 опасность
солнечного
удара
1015.3 1014.9 +21.8 +31.2
21 17.02 Ю 3 7000 м мгла {туман} 1/1 600 м
[Sc]
+29.8 +23.4 69 +40 +49 очень
душно
1012.7 1012.3
00 18.02 З 2 7000 м мгла {туман} 3/3 600 м
[Sc]
+28.1 +22.0 70 +37 +37 очень
душно
1012.2 1011.8 +21.8 +31.7
03 18.02 СЗ 1 6000 м мгла {туман} 3/0 2000 м
[Ac trans]
+25.2 +22.3 84 +33 +33 очень
душно
1014.1 1013.7
06 18.02 СЗ 1 6000 м мгла {туман} 8/8 600 м
[Sc diur, vesp]
+25.3 +22.8 86 +33 +33 очень
душно
1014.7 1014.3 +21.8 +31.7
09 18.02 штиль 0 6000 м мгла {туман} ясно +25.0 +22.2 84 +32 +32 очень
душно
1014.1 1013.7
12 18.02 штиль 0 6000 м мгла {туман} ясно +23.0 +20.1 84 +30 +30 очень
душно
1013.1 1012.7 +23.0 +31.7
15 18.02 СВ 1 6000 м мгла {туман} ясно +24.1 +19.8 77 +29 +34 душно 1013.6 1013.2
18 18.02 З 1 6000 м мгла {туман} 1/1 600 м
[Cu hum]
+28.1 +20.8 65 +35 +52 опасность
солнечного
удара
1014.7 1014.3 +22.5 +29.4
21 18.02 Ю 2 6000 м мгла {туман} ясно +28.2 +23.6 76 +38 +51 опасность
солнечного
удара
1012.8 1012.4
00 19.02 ЮЗ 1 7000 м мгла {туман} ясно +27.2 +20.4 66 +34 +34 очень
душно
1012.0 1011.6 +22.5 +30.2
03 19.02 штиль 0 6000 м мгла {туман} ясно +25.0 +21.9 83 +32 +32 очень
душно
1013.7 1013.3
06 19.02 В 1 6000 м мгла {туман} 6/6 600 м
[Sc diur, vesp]
+24.1 +20.7 81 +30 +30 очень
душно
1014.7 1014.3 +22.5 +30.2
09 19.02 штиль 0 6000 м мгла {туман} 8/8 600 м
[Sc]
+23.8 +21.0 84 +30 +30 очень
душно
1014.6 1014.2
12 19.02 штиль 0 6000 м мгла {туман} 5/5 600 м
[Sc]
+23.4 +20.9 86 +31 +31 очень
душно
1013.7 1013.3 +23.4 +30.2
15 19.02 штиль 0 7000 м мгла {туман} 9/9 600 м
[Cb cap]
+24.6 +21.1 81 +31 +32 очень
душно
1015.2 1014.8
18 19.02 З 4 7000 м мгла {туман} 4/4 600 м
[Cb cap]
+26.1 +21.5 76 +33 +40 очень
душно
1016.7 1016.3 +23.4 +27.1 0.0
21 19.02 штиль 0 6000 м мгла {туман} ясно +26.9 +21.2 71 +34 +51 опасность
солнечного
удара
1012.7 1012.3
00 20.02 З 3 6000 м мгла {туман} 5/5 600 м
[Sc diur, vesp]
+25.4 +19.7 71 +31 +31 очень
душно
1011.1 1010.7 +23.4 +27.7
03 20.02 З 1 6000 м мгла {туман} 5/0 2000 м
[Ac trans]
+24.3 +19.6 75 +30 +30 очень
душно
1012.5 1012.1
06 20.02 штиль 0 6000 м мгла {туман} ясно +22.3 +20.0 87 +28 +28 душно 1013.9 1013.5 +27.7
09 20.02 штиль 0 6000 м мгла {туман} 3/0
[Ac trans]
+21.1 +19.8 92 +26 +26 душно 1013.2 1012.8
12 20.02 С 1 6000 м мгла {туман} 1/0 2000 м
[Ac trans]
+21.6 +18.7 84 +26 +26 душно 1012.4 1012.0 +21.1 +27.7
18 20.02 штиль 0 6000 м мгла {туман} 3/3 600 м
[Sc]
+25.9 +21.7 78 +33 +48 очень
душно
1013.1 1012.7 +21.1 +26.9
21 20.02 ЮЗ 1 6000 м мгла {туман} 1/0 2000 м
[Ac cuf]
+27.3 +19.4 62 +33 +46 очень
душно
1010.7 1010.3
00 21.02 З 2 6000 м мгла {туман} 1/1 600 м
[Cu hum]
+26.0 +19.4 67 +31 +32 очень
душно
1009.1 1008.7 +21.1 +28.3
03 21.02 З 1 6000 м мгла {туман} ясно +24.1 +18.4 70 +29 +29 душно 1010.5 1010.1
06 21.02 штиль 0 6000 м мгла {туман} ясно +22.4 +19.1 82 +28 +28 душно 1012.2 1011.8 +21.1 +28.3
09 21.02 штиль 0 6000 м мгла {туман} ясно +21.6 +19.0 85 +26 +26 душно 1013.4 1013.0
12 21.02 штиль 0 6000 м мгла {туман} ясно +21.2 +18.6 85 +26 +26 душно 1012.7 1012.3 +21.2 +28.3
15 21.02 штиль 0 6000 м мгла {туман} 3/0
[Cs]
+22.9 +18.8 78 +29 +34 очень
душно
1013.5 1013.1
18 21.02 штиль 0 6000 м мгла {туман} 1/1 600 м
[Cu hum]
+27.3 +17.6 55 +31 +51 опасность
солнечного
удара
1013.8 1013.4 +21.0 +28.6
21 21.02 штиль 0 6000 м мгла {туман} ясно +28.0 +21.0 66 +35 +52 опасность
солнечного
удара
1011.9 1011.5
00 22.02 штиль 0 6000 м мгла {туман} 3/0
[Ci fib]
+26.2 +19.9 68 +32 +33 очень
душно
1010.6 1010.2 +21.0 +29.4
03 22.02 З 2 6000 м мгла {туман} ясно +25.2 +19.3 70 +30 +30 душно 1011.8 1011.4
09 22.02 С 1 6000 м мгла {туман} 9/0
[Cs]
+22.3 +18.6 80 +28 +28 душно 1012.5 1012.1
12 22.02 С 3 6000 м мгла {туман} 9/0
[Cs]
+21.9 +17.4 76 +26 +26 душно 1012.8 1012.4 +21.8 +29.4
15 22.02 С 1 6000 м мгла {туман} 6/0 1500 м
[As trans]
+23.1 +17.5 71 +28 +31 душно 1014.0 1013.6
18 22.02 З 1 6000 м мгла {туман} 9/0 2000 м
[Ac lent Cs]
+28.1 +18.7 57 +33 +42 очень
душно
1015.3 1014.9 +21.2 +29.5
21 22.02 З 3 6000 м мгла {туман} 9/0 2000 м
[Ac und Cs]
+27.4 +20.8 67 +34 +42 очень
душно
1013.5 1013.1
00 23.02 ЮЗ 2 6000 м мгла {туман} 9/0 2000 м
[Ac und]
+27.1 +20.5 67 +34 +34 очень
душно
1013.0 1012.6 +21.2 +29.6
03 23.02 С 1 6000 м мгла {туман} 5/5 600 м
[Sc]
+26.4 +20.2 69 +33 +33 очень
душно
1014.1 1013.7
06 23.02 С 1 6000 м мгла {туман} 5/5 600 м
[Sc]
+26.0 +21.8 78 +33 +33 очень
душно
1013.5 1013.1 +21.2 +29.6

 

Местоположение метеостанции Мансанильо (Мексика): широта 19.05 долгота -104.30 высота над уровнем моря 3 м.

В архиве по умолчанию представлена погода в Мансанильо за последнюю неделю. Архивные данные за месяц целиком и за предыдущие месяцы, начиная с января 2011 года, Вы можете получить, выбрав интересующий диапазон дат из раскрывающегося списка и нажав кнопку "Ввод!".


*Определитесь, кто Вы:
робот инопланетянин человек

Внимание! Время в таблицах - всемирное. Для получения местного времени необходимо прибавить поправку, которая равна -6 ч.

Смотрите также архив погоды в соседних городах и на ближайших метеорологических станциях:

Погода в Колиме (Мексика) (88 км)
Погода в Сьюдад-Гусмане (Мексика) (120 км)
Погода в Гвадалахаре (Мексика) (208 км)
Погода в Заморе (Мексика) (234 км)
Погода в Тепике (Мексика) (280 км)
Погода в Морелии (Мексика) (343 км)
Погода в Колотлане (Мексика) (356 км)
Погода в Лагос де Морено (Мексика) (357 км)
Погода в Агуаскальентесе (Мексика) (377 км)
Погода в Уэхукаре (Мексика) (383 км)

Пояснения к столбцам:

Ветер - указаны скорость ветра в м/с - средняя за 10 мин, порывы в срок и между сроками (в фигурных скобках) и направление, откуда дует ветер: С - северный, СВ - северо-восточный, В - восточный, ЮВ - юго-восточный, Ю - южный, ЮЗ - юго-западный, З - западный, СЗ - северо-западный.
Видимость - горизонтальная дальность видимости в метрах или километрах. При видимости от 1 до 10 км при отсутствии осадков обычно наблюдается дымка, при ухудшении видимости до 1 км и менее - туман. В сухую погоду видимость может ухудшаться дымом, пылью или мглою.
Явления - указаны атмосферные явления, наблюдавшиеся в срок или в последний час перед сроком; фигурными скобками обозначены явления, наблюдавшиеся между сроками (за 1-3 часа до срока); квадратными скобками обозначены град или гололедные отложения с указанием их диаметра в мм.
Облачность - указаны через наклонную черту общая и нижняя облачность в баллах и высота нижней границы облаков в метрах; квадратными скобками обозначены формы облаков: Ci - перистые, Cs - перисто-слоистые, Cc - перисто-кучевые, Ac - высококучевые, As - высокослоистые, Sc - слоисто-кучевые, Ns - слоисто-дождевые, Cu - кучевые, Cb - кучево-дождевые. Подробнее классификацию облаков см. в Атласе облаков (PDF).
T - Температура воздуха - температура, измеренная на высоте 2 м над землей.
Td - Температура точки росы - температура, при понижении до которой содержащийся в воздухе водяной пар достигнет насыщения.
f - Относительная влажность воздуха - влажноcть воздуха, измеренная на высоте 2 м над землей.
Te - Эффективная температура - температура, которую ощущает одетый по сезону человек в тени. Характеристика душности погоды. При расчете учитывается влияние влажности воздуха и скорости ветра на теплоощущения человека.
Tes - Эффективная температура на солнце - температура, которую ощущает человек, с поправкой на солнечный нагрев. Характеристика знойности погоды. Зависит от высоты солнца над горизонтом, облачности и скорости ветра. Ночью, в пасмурную погоду, а также при ветре 12 м/с и более поправка равна нулю.
P - Атмосферное давление - приведенное к уровню моря атмосферное давление.
Po - Атмосферное давление - измеренное на уровне метеостанции атмосферное давление.
Tmin - Минимальная температура - минимум температуры воздуха на высоте 2 м над землей.
Tmax - Максимальная температура - максимум температуры воздуха на высоте 2 м над землей.
R - Количество осадков - Количество выпавших осадков за период времени, мм. При наведении курсора мыши на число - период времени, за который выпало указанное количество осадков.
R24 - Количество осадков - Количество выпавших осадков за 24 часа, мм.
S - Снежный покров - Высота снежного покрова, см. При наведении курсора мыши на число - состояние снежного покрова и степень покрытия местности в баллах.